Terug naar catalogus

STARLINK-37541

ActiefCommunicatieSSO
NORAD 68906·PAYLOAD·🇺🇸 United States

Gelanceerd Apr 30, 2026 vanaf Vandenberg Space Force Base

Loading…

Volgende Passages (komende 24 uur)

TLE

VersSource: CelesTrak SupGP

Epoch: Sep 15, 2026, 03:54 UTC

1 68906C 26097M   26258.16298611 -.00056922  00000+0 -17670-2 0  2586
2 68906  97.2850  92.3160 0001708  93.7072 122.3608 15.33467310    13

Volg STARLINK-37541 in realtime met AllMySat

Download on the App Store